FREGAT R/B, 40083

Orbit data source: Space-Track

FREGAT R/B, 40083 is space debris originally from a launch on Thu, 10 Jul 2014 UTC launched from the French Guiana (FRGUI). Debris objects in space refer to the collection of defunct objects orbiting the Earth. Examples of debris include non-operational satellites, rocket bodies, and fragments generated from explosions, collisions, or faulty payload assembly.

Loading next visibility...
Identifier
40083, 2014-038E
Orbit
Active
Country
Flag of CISCIS
Related business
Manufacturer
Lavochkin
Mission
Spacecraft
Bus & Motor
FREGAT, Unknown motor
Mass
1,050 kg wet, 1,050 kg dry
Launch date (UTC)
2014-07-10 (12 years ago)
Launch vehicle
Unknown
Launch site
French Guiana (FRGUI)
Object type
Payload
Rocket body
Debris
Shape & HBR
Irr, 1.6 m
Radar Cross Section
11.055 m², Large (>1 m²)

Expand to show TLE details & history
Last TLE update: 22 hours ago

TLE from 22 hours ago
0 FREGAT R/B
1 40083U 14038E   26123.81314707 -.00000020  00000-0  00000+0 0  9998
2 40083   0.1454 326.7503 0011350  14.1147  19.0939  5.21123177224924
Epoch: 2026-05-03T19:30Z
TLE epoch observation values (Epoch: 2026-05-03T19:30:55.906Z)
Latitude
0.08446°
Longitude
-154.44432°
Altitude
7,658.416 km
Speed
5.333 km/s
True Right ascension
23h 59m 59s
True Declination
0° 05' 03"
Sunlit
Object was in daylight at epoch
Visualization orbit readout
Latitude
Unknown
Longitude
Unknown
Altitude
Unknown
Speed
Unknown
Apparent Right ascension
Unknown
Apparent Declination
Unknown
Sunlit
N/A
Visualization observer readout
Local Sidereal Time
00:54:22
Azimuth
Unknown
Elevation
Unknown
Doppler factor
Unknown
Orbital elements
Apogee altitude
7,694.15 km
Perigee altitude
7,662.242 km
Semi-major axis
14,056.333 km
Eccentricity
0.00114
Inclination
0.1454°
RAAN
326.7503°
Arg. of periapsis
14.1147°
True anomaly
19.1365°
Mean anomaly
19.0939°
Eccentric anomaly
19.1152°
Mean motion
1.30237 °/min
Orbital period
276.42 mins
BSTAR
0
Loading maneuver chart data...
Computing Atmospheric mass density...
Loading historical data...
Loading historical data...
Loading historical data...
Loading historical data...
Loading historical data...
Loading historical data...
Loading historical data...
Other satellites on launch #38 in the year 2014 (2014-07-10 UTC)

Documentation

Showing up to 5 results
|